Погода в Тамбаре

Россия / Кемеровская область (Кузбасс)     55°35′25″N   88°37′07″E
темп.,
°C
ветер,
м/с
пор.,
м/с
влажн.,
%
обл.,
%
осадки,
мм/ч
давл.,
гПа
погр.,
м
6 марта, сб
сб601:00−5юз10228489 0.9 10181723
04:00−6юз102084100 1.3 10171423
07:00−7юз9198499 1.9 10191185
10:00−5юз10207491 0.1 10181242
13:00−4юз9197395 0.1 10171184
16:00−4юз92073100 0.0 10151316
19:00−5юз102273100 0.0 10131247
22:00−5юз102082100 0.1 10121149
7 марта, вс
вс701:00−5юз9188297 0.3 10121098
04:00−6юз8168673 0.3 1011882
07:00−5юз7148887 1.1 10121057
10:00−5зюз7138997 0.6 10131332
13:00−5зюз7156699 1.1 10161492
16:00−6зюз61371100 0.0 10181318
19:00−9зюз5137774 0.0 1020601
22:00−11зюз414782 0.0 1022456
8 марта, пн
пн801:00−13юз3108519 0.0 1024217
04:00−13ююз338587 0.0 102475
07:00−13ю239187 0.0 102343
10:00−7ююв248879 0.0 1020156
13:000ююз4108389 0.0 1016934
16:00+1ююз41374100 0.0 10121239
19:00−1юз71774100 0.0 10101052
22:00−2юз102076100 0.0 10101157
9 марта, вт
вт901:00−4зюз8158882 0.6 10131135
04:00−5зюз7168589 0.2 10161260
07:00−9зюз7167184 0.2 1019798
10:00−9зюз7157299 0.0 1022961
13:00−7зюз7137155 0.0 1024945
16:00−6зюз5117242 0.0 1023912
19:00−9юз3118470 0.0 1023352
22:00−10ююз31387100 0.0 1021366
10 марта, ср
ср1001:00−7ююз31390100 0.0 1018402
04:00−5ююз3129561 0.1 1015549
07:00−4юз4138952 0.1 1015702
10:00−2зюз7148385 0.1 10151292
13:00−1зюз6127961 0.1 10151104
16:00−1зюз5117772 0.0 10151066
19:00−3зюз129486 0.0 101422
22:00−5ююв2294100 0.0 101329